GW5592 Weather Reports


time (UTC)temp
F
wind
direction
speed
knots
gust
knots
rain 1hr
in
rain 24hr
in
rain mn
in
humidity
%
barometer
mb
20260504034507 52 38 0.0 0.0 0.00 0.00 0.00 81 1014.9
20260504034004 52 38 0.0 0.0 0.00 0.00 0.00 80 1014.8
20260504033508 52 38 0.0 0.9 0.00 0.00 0.00 80 1014.8
20260504033013 52 38 0.0 0.9 0.00 0.00 0.00 79 1014.8
20260504032504 53 56 0.0 0.0 0.00 0.00 0.00 78 1014.8
20260504032009 54 168 0.0 0.0 0.00 0.00 0.00 78 1014.9
20260504031520 54 168 0.0 0.9 0.00 0.00 0.00 78 1015.0
20260504031008 54 168 0.0 1.7 0.00 0.00 0.00 79 1014.9
20260504030506 53 167 0.0 0.9 0.00 0.00 0.00 79 1015.0
20260504030023 53 155 0.0 0.0 0.00 0.00 0.00 78 1015.0
20260504025507 54 155 0.0 0.0 0.00 0.00 0.00 78 1015.1
20260504025006 54 144 0.0 0.0 0.00 0.00 0.00 78 1015.0
20260504024524 54 143 0.0 0.0 0.00 0.00 0.00 78 1015.1
20260504024007 53 143 0.0 0.9 0.00 0.00 0.00 78 1015.0
20260504023503 53 143 0.0 0.9 0.00 0.00 0.00 78 1015.1
20260504023008 54 161 0.0 0.0 0.00 0.00 0.00 77 1015.2
20260504022504 54 161 0.0 0.0 0.00 0.00 0.00 77 1015.1
20260504022007 55 167 0.0 0.0 0.00 0.00 0.00 76 1015.1
20260504021513 55 171 0.0 0.0 0.00 0.00 0.00 76 1015.2
20260504021005 55 171 0.0 0.0 0.00 0.00 0.00 76 1015.2
20260504020508 55 171 0.0 0.0 0.00 0.00 0.00 76 1015.1
20260504020021 55 171 0.0 0.0 0.00 0.00 0.00 75 1015.2
20260504015508 56 171 0.0 0.9 0.00 0.00 0.00 75 1015.2
20260504015008 56 171 0.0 1.7 0.00 0.00 0.00 75 1015.2
20260504014524 56 171 0.0 2.6 0.00 0.00 0.00 75 1015.2
20260504014006 55 167 0.0 2.6 0.00 0.00 0.00 75 1015.2
20260504013508 56 167 0.0 1.7 0.00 0.00 0.00 75 1015.3
20260504013034 56 172 0.0 1.7 0.00 0.00 0.00 74 1015.3
20260504012504 56 172 0.0 1.7 0.00 0.00 0.00 74 1015.2
20260504012007 56 186 0.9 1.7 0.00 0.00 0.00 74 1015.3
20260504011509 56 148 0.0 0.0 0.00 0.00 0.00 74 1015.4
20260504011008 56 148 0.0 0.0 0.00 0.00 0.00 73 1015.5
20260504010505 56 148 0.0 1.7 0.00 0.00 0.00 73 1015.6
20260504010016 56 148 0.0 1.7 0.00 0.00 0.00 73 1015.6
20260504005505 57 161 0.0 0.9 0.00 0.00 0.00 73 1015.6
20260504005010 57 190 0.0 0.9 0.00 0.00 0.00 73 1015.6
20260504004522 57 202 0.0 0.9 0.00 0.00 0.00 73 1015.7
20260504004010 57 191 0.0 1.7 0.00 0.00 0.00 73 1015.7
20260504003509 57 205 0.0 1.7 0.00 0.00 0.00 73 1015.7
20260504003025 57 161 0.0 1.7 0.00 0.00 0.00 72 1015.7
20260504002509 57 157 0.0 1.7 0.00 0.00 0.00 72 1015.8
20260504002009 57 96 0.0 1.7 0.00 0.00 0.00 71 1015.9
20260504001510 57 186 0.0 1.7 0.00 0.00 0.00 72 1016.0
20260504001005 58 186 0.0 1.7 0.00 0.00 0.00 71 1016.0
20260504000506 58 184 0.0 1.7 0.00 0.00 0.00 71 1016.0
20260504000015 58 163 0.0 1.7 0.00 0.00 0.00 71 1016.0
20260503235506 58 163 0.0 1.7 0.00 0.00 0.00 70 1016.0
20260503235007 58 191 0.0 1.7 0.00 0.00 0.00 68 1016.0
20260503234520 59 188 0.0 1.7 0.00 0.00 0.00 68 1016.0
20260503234013 59 188 0.0 0.9 0.00 0.00 0.00 67 1016.0
20260503233510 59 188 0.0 0.9 0.00 0.00 0.00 68 1016.1
20260503233026 59 220 0.0 0.9 0.00 0.00 0.00 67 1016.2
20260503232508 58 249 0.0 1.7 0.00 0.00 0.00 68 1016.2
20260503232016 58 249 0.0 1.7 0.00 0.00 0.00 67 1016.1
20260503231526 58 290 0.0 1.7 0.00 0.00 0.00 67 1016.1
20260503231012 58 262 0.9 3.5 0.00 0.00 0.00 67 1016.0
20260503230508 58 273 0.0 3.5 0.00 0.00 0.00 67 1016.1
20260503230013 59 292 1.7 2.6 0.00 0.00 0.00 66 1016.0
20260503225506 59 300 0.9 1.7 0.00 0.00 0.00 65 1015.9
20260503225006 59 298 0.0 2.6 0.00 0.00 0.00 66 1015.9
20260503224518 59 257 1.7 2.6 0.00 0.00 0.00 64 1015.9
20260503224016 60 263 0.0 0.0 0.00 0.00 0.00 63 1016.0
20260503223508 60 281 0.0 0.0 0.00 0.00 0.00 63 1016.0
20260503223021 60 273 0.0 1.7 0.00 0.00 0.00 62 1016.0
20260503222511 60 276 0.0 1.7 0.00 0.00 0.00 62 1016.0
20260503222008 60 263 0.9 1.7 0.00 0.00 0.00 62 1016.0
20260503221531 60 292 0.9 1.7 0.00 0.00 0.00 62 1016.0
20260503221011 61 300 0.9 1.7 0.00 0.00 0.00 62 1016.0
20260503220509 61 288 0.0 1.7 0.00 0.00 0.00 62 1016.0
20260503220026 61 300 0.0 2.6 0.00 0.00 0.00 60 1015.9
20260503215510 61 336 0.0 4.3 0.00 0.00 0.00 59 1016.0
20260503215008 62 336 1.7 4.3 0.00 0.00 0.00 59 1015.9
20260503214516 62 314 0.9 3.5 0.00 0.00 0.00 60 1015.9
20260503214008 62 304 0.9 3.5 0.00 0.00 0.00 59 1015.9
20260503213506 62 317 1.7 3.5 0.00 0.00 0.00 59 1015.9
20260503213029 62 319 0.9 3.5 0.00 0.00 0.00 61 1015.9
20260503212508 62 311 0.9 3.5 0.00 0.00 0.00 61 1015.9
20260503212009 61 305 1.7 3.5 0.00 0.00 0.00 63 1015.9
20260503211525 61 310 0.0 2.6 0.00 0.00 0.00 68 1015.8
20260503211009 61 25 0.0 1.7 0.00 0.00 0.00 67 1015.8
20260503210509 61 36 0.0 0.0 0.00 0.00 0.00 67 1015.7
20260503210024 61 76 0.0 0.9 0.00 0.00 0.00 66 1015.6
20260503205503 62 63 0.0 0.9 0.00 0.00 0.00 66 1015.6
20260503205008 62 30 0.0 0.9 0.00 0.00 0.00 66 1015.7
20260503204511 62 279 0.0 1.7 0.00 0.00 0.00 65 1015.6
20260503204004 62 279 0.0 1.7 0.00 0.00 0.00 64 1015.5
20260503203506 62 280 0.9 1.7 0.00 0.00 0.00 65 1015.5
20260503203017 62 300 0.0 1.7 0.00 0.00 0.00 68 1015.4
20260503202509 62 304 0.0 1.7 0.00 0.00 0.00 66 1015.4
20260503202002 62 167 0.0 0.0 0.00 0.00 0.00 64 1015.3
20260503201509 62 167 0.0 0.9 0.00 0.00 0.00 64 1015.2
20260503201002 63 167 0.0 0.9 0.00 0.00 0.00 64 1015.2
20260503200503 63 220 0.0 0.9 0.00 0.00 0.00 61 1015.1
20260503200010 63 327 0.0 1.7 0.00 0.00 0.00 61 1015.1
20260503195503 63 327 0.0 2.6 0.00 0.00 0.00 62 1014.9
20260503195003 63 336 0.9 2.6 0.00 0.00 0.00 62 1014.9
20260503194510 63 298 0.0 3.5 0.00 0.00 0.00 61 1014.8
20260503194008 63 306 0.9 3.5 0.00 0.00 0.00 62 1014.6
20260503193506 63 336 0.9 2.6 0.00 0.00 0.00 62 1014.5
20260503193018 63 329 1.7 2.6 0.00 0.00 0.00 62 1014.4
20260503192506 64 5 0.9 3.5 0.00 0.00 0.00 62 1014.3
20260503192010 64 360 0.9 3.5 0.00 0.00 0.00 1014.3
20260503191522 64 352 0.0 3.5 0.00 0.00 0.00 1014.3
20260503191010 64 329 0.9 3.5 0.00 0.00 0.00 60 1014.3
20260503190504 65 340 2.6 4.3 0.00 0.00 0.00 60 1014.3
20260503190002 65 288 1.7 4.3 0.00 0.00 0.00 60 1014.3
20260503185502 65 329 1.7 6.1 0.00 0.00 0.00 60 1014.2
20260503185003 66 281 2.6 6.1 0.00 0.00 0.00 59 1014.1
20260503184509 66 286 1.7 6.1 0.00 0.00 0.00 59 1014.1
20260503184010 66 339 1.7 6.1 0.00 0.00 0.00 58 1014.1
20260503183510 66 265 1.7 7.0 0.00 0.00 0.00 57 1014.1
20260503183023 66 306 3.5 7.8 0.00 0.00 0.00 57 1014.0
20260503182503 67 327 3.5 7.8 0.00 0.00 0.00 56 1014.0
20260503182007 67 284 5.2 7.8 0.00 0.00 0.00 55 1014.1
20260503181528 67 296 2.6 7.8 0.00 0.00 0.00 54 1014.1
20260503181007 68 279 2.6 9.6 0.00 0.00 0.00 54 1014.1
20260503180507 68 304 6.1 9.6 0.00 0.00 0.00 54 1014.0
20260503180022 68 242 4.3 8.7 0.00 0.00 0.00 55 1014.0
20260503175503 68 277 3.5 10.4 0.00 0.00 0.00 54 1014.0
20260503175004 69 287 4.3 10.4 0.00 0.00 0.00 53 1014.0
20260503174503 69 264 4.3 10.4 0.00 0.00 0.00 52 1014.0
20260503174006 69 237 2.6 11.3 0.00 0.00 0.00 53 1014.0
20260503173503 70 271 2.6 11.3 0.00 0.00 0.00 52 1013.8
20260503173028 70 241 4.3 8.7 0.00 0.00 0.00 53 1013.9
20260503172506 69 244 4.3 11.3 0.00 0.00 0.00 54 1013.8
20260503172007 69 285 4.3 11.3 0.00 0.00 0.00 53 1013.8
20260503171514 70 240 6.1 11.3 0.00 0.00 0.00 51 1013.8
20260503171008 70 284 3.5 9.6 0.00 0.00 0.00 53 1013.7
20260503170505 69 225 5.2 10.4 0.00 0.00 0.00 52 1013.7
20260503151003 73 240 2.6 8.7 0.00 0.00 0.00 44 1014.0
20260503150510 73 234 4.3 8.7 0.00 0.00 0.00 40 1014.0
20260503131010 70 252 6.1 10.4 0.00 0.00 0.00 51 1014.9
20260503130508 69 246 6.1 10.4 0.00 0.00 0.00 51 1014.8
20260503110502 65 213 1.7 6.1 0.00 0.00 0.00 69 1016.2
20260503090508 63 164 1.7 5.2 0.00 0.00 0.00 75 1016.7
20260503081519 62 211 0.9 4.3 0.00 0.00 0.00 78 1016.8
20260503081008 61 223 0.9 4.3 0.00 0.00 0.00 78 1016.7
20260503080506 61 204 0.9 6.1 0.00 0.00 0.00 78 1016.8
20260503072507 59 209 0.0 2.6 0.00 0.00 0.00 81 1016.7
20260503072007 59 224 0.9 2.6 0.00 0.00 0.00 81 1016.7
20260503071524 59 238 0.0 4.3 0.00 0.00 0.00 81 1016.6
20260503071006 59 238 2.6 4.3 0.00 0.00 0.00 81 1016.8
20260503070506 59 236 1.7 3.5 0.00 0.00 0.00 81 1016.8
20260503055005 59 262 0.0 1.7 0.00 0.00 0.00 81 1016.2
20260503054525 59 257 0.0 1.7 0.00 0.00 0.00 81 1016.1
20260503054013 59 268 0.0 1.7 0.00 0.00 0.00 81 1016.0
20260503053509 59 246 0.9 3.5 0.00 0.00 0.00 81 1016.0
20260503053036 59 200 1.7 4.3 0.00 0.00 0.00 81 1015.9
20260503052508 59 163 0.9 4.3 0.00 0.00 0.00 81 1015.7
20260503052010 59 196 0.0 2.6 0.00 0.00 0.00 81 1015.7
20260503051529 59 164 0.0 2.6 0.00 0.00 0.00 81 1015.7
20260503051014 59 203 0.0 1.7 0.00 0.00 0.00 81 1015.9
20260503050506 59 205 0.0 2.6 0.00 0.00 0.00 81 1015.9
20260503050018 59 235 0.0 2.6 0.00 0.00 0.00 81 1016.0
20260503045510 59 219 0.0 0.0 0.00 0.00 0.00 80 1016.0
20260503045007 59 206 0.0 0.0 0.00 0.00 0.00 80 1016.0
20260503044553 59 281 0.0 0.0 0.00 0.00 0.00 80 1016.0
20260503044009 59 281 0.0 0.0 0.00 0.00 0.00 79 1015.7
20260503043509 59 281 0.0 0.0 0.00 0.00 0.00 79 1015.9
20260503043026 59 281 0.0 0.0 0.00 0.00 0.00 79 1016.0
20260503042511 59 281 0.0 0.0 0.00 0.00 0.00 79 1016.0
20260503042011 60 281 0.0 0.0 0.00 0.00 0.00 79 1016.1
20260503041526 60 281 0.0 0.0 0.00 0.00 0.00 79 1016.2
20260503041009 60 281 0.0 0.9 0.00 0.00 0.00 79 1016.3
20260503040513 60 294 0.0 0.9 0.00 0.00 0.00 79 1016.4
20260503040030 60 300 0.0 0.0 0.00 0.00 0.00 79 1016.4
20260503035507 60 302 0.0 1.7 0.00 0.00 0.00 79 1016.4
20260503035007 60 280 0.9 1.7 0.00 0.00 0.00 79 1016.4